Погода в Москве

Хотите узнать прогноз погоды в Москве? Тогда Вам сюда: Погода в Москве

Поиск расширенной информации на нашем сайте:

Полезная информация:

Новости сайта



14.11.2019
Обновлён Долгосрочный прогноз погоды по России и другим странам хСССР на ноябрь-декабрь 2019 года.
Опубликованы прогностические карты: Предварительный прогноз на декабрь 2019 года, Предварительный прогноз на январь 2020 года, Предварительная схема синоптических процессов на декабрь 2019 г..

11.11.2019
Обновлены Долгосрочный прогноз погоды по России и другим странам хСССР на ноябрь-декабрь 2019 года и Предварительный прогноз на зиму 2019/2020 годов

04.11.2019
Опубликован Долгосрочный прогноз погоды по России и другим странам хСССР на ноябрь 2019 года
Сравнение прогнозируемой аномалии приземной температуры воздуха на ноябрь 2019 года по разным моделям
Предварительный прогноз на зиму 2019/2020 года




Погода в Москве - сегодня

Время (UTC), дата Ветер
(°,м/с) 
Видим.   Явления Облачность Т
(°С)
Тd
(°С)
f(%) Тe
(°С)
Pmin
(гПа)
dP
(гПа)
Po
(мм)
O2
(г/м3)
Тmin Tmax R s Состояние
почвы
03 17.11.19 180 (Ю) н/о  дымка  10/10 100 м 
[St]
+4.4 +3.4 93 +5  1029.5  0.6  757  300  +3.7    0.0     
06 17.11.19 230 (ЮЗ) 4000 м  дымка  10/10 200 м 
[St]
+4.5 +3.7 95 +5  1030.5  758  300  +3.7         
09 17.11.19 180 (Ю) 4000 м  дымка  10/10 200 м 
[St]
+5.8 +4 88 +7  1030.2  -0.2  758  298           
12 17.11.19 170 (Ю) 4000 м  дымка  10/10 200 м 
[St]
+6.6 +4.7 88 +8  1029.8  -0.3  758  297           
15 17.11.19 тихо ()   н/о  дымка  10/10 300 м 
[St]
+6.4 +4.8 89 +6  1030.3  0.5  758  298           
18 17.11.19 тихо ()   н/о  дымка  10/10 200 м 
[Sc diur, vesp]
+6.3 +4.2 86 +6  1029.6  -0.7  758  298    +6.7       
21 17.11.19 тихо ()   н/о  дымка  10/10 200 м 
[St]
+4.3 +3.2 93 +4  1029.9  0.1  758  300           
00 18.11.19 тихо ()   н/о  дымка  10/10 100 м 
[St]
+3.6 +2.6 93 +4  1029.6  -0.3  757  301           
03 18.11.19 тихо ()   н/о  дымка  10/10 100 м 
[St]
+3.1 +2.1 93 +3  1029.5  -0.2  757  301  +2.6         
06 18.11.19 тихо ()   4000 м  дымка  9/9 300 м 
[Frnb]
+2.4 +2 97 +2  1029.5  757  302  +2.1         
09 18.11.19 240 (ЮЗ) 4000 м  дымка  10/10 200 м 
[Frnb]
+2.9 +2.1 94 +4  1030.2  0.7  758  302           
12 18.11.19 тихо ()   2000 м  дымка  10/10 100 м 
[St]
+3.2 +2.5 95 +3  1030.1  0.1  758  301           
15 18.11.19 тихо ()   н/о  дымка  10/10 100 м 
[St]
+3.5 +3 97 +4  1030.3  0.2  758  301           
18 18.11.19 120 (ЮВ) н/о  дымка  10/10 200 м 
[St]
+4.3 +3.3 93 +5  1030.3  758  300    +4.3       
21 18.11.19 тихо ()   н/о  дымка  10/10 200 м 
[St]
+3.7 +2.9 94 +4  1030.9  0.6  758  301           
00 19.11.19 160 (Ю) н/о  дымка  10/10 100 м 
[St]
+3.5 +2.8 95 +4  1031.6  0.6  759  301           
03 19.11.19 140 (ЮВ) н/о  дымка  10/10 100 м 
[St]
+2.6 +2 96 +3  1031.7  0.1  759  303  +2.6         
06 19.11.19 120 (ЮВ) 2000 м  дымка  10/10 100 м 
[St]
+1.9 +1.3 96 +3  1032.5  0.7  759  304  +1.8         
09 19.11.19 130 (ЮВ) 4000 м  дымка  10/10 200 м 
[St]
+2.8 +1 88 +4  1032.9  0.5  760  303           
12 19.11.19 120 (ЮВ) 4000 м  дымка  10/10 200 м 
[St]
+3.3 +1.6 89 +4  1033.2  0.3  760  302           
15 19.11.19 120 (ЮВ) н/о  дымка  10/10 200 м 
[St]
+3.1 +1.8 91 +3  1033.9  0.7  761  303           
18 19.11.19 130 (ЮВ) н/о  дымка  10/10 100 м 
[St]
+3.7 +2.8 94 +5  1034.7  0.8  761  302    +3.7       
21 19.11.19 130 (ЮВ) н/о  дымка  10/10 100 м 
[St]
+4.7 +3.4 91 +4  1035.7  762  301           
00 20.11.19 130 (ЮВ) н/о  дымка{ливн. осадки}  10/10 200 м 
[Frnb]
+4.9 +3.3 89 +5  1036.9  1.1  763  301           
03 20.11.19 120 (ЮВ) н/о  дымка  10/10 200 м 
[Frnb]
+4.3 +2.3 87 +4  1038.1  1.2  764  303  +3.7    0.1     
Время (UTC), дата Ветер
(°,м/с) 
Видим.   Явления Облачность Т
(°С)
Тd
(°С)
f(%) Тe
(°С)
Pmin
(гПа)
dP
(гПа)
Po
(мм)
O2
(г/м3)
Тmin Tmax R s Состояние
почвы

Для получения пояснительной информации подведите курсор к названию столбца.

ПОГОДА в Москве - архив

Всё, что Вы хотите узнать о погоде в Москве - удобно и подробно!

Выберите нужную дату (начиная с 1 января 2019* года) и нажмите кнопку "Найти".
Будут отображены архивные сводки погоды по пункту Москва, начиная с указанной даты.


Отображать данные в формате CSV (для использования в таблицах Excel)


Внимание! Наш архив погоды предназначен исключительно для личного некоммерческого использования в познавательных целях. Если Вам необходимы официальные справки о состоянии погоды (для производственных, юридических, коммерческих и т.п. целей), обращайтесь в органы Росгидромета.

*Примечание: данная дата относится к архиву по метеостанциям СССР (Россия, СНГ, Балтия).
Архив по метеостанциям Зарубежной Европы и Азии (кроме Китая) хранится 10 дней, по другим регионам земного шара (Китай, Африка, Америка, Австралия, Океания) - 1 день.

Москва - район местоположения метеостанции


Название, широта, долгота, высота метеостанции:
Москва (ВВЦ) 55.8°ш. 37.6°д. 156 м над ур. моря [Российская Федерация]

Дополнительная информация

В oтличие oт бoльшинства пoгoдных сайтoв мы публикуем пoдрoбную метеoинфoрмацию в детальнoм прoфессиoнальнoм фoрмате.

Характеристики температуры и влажнoсти вoздуха измеряются на высoте 2 м в тени вдали oт зданий и деревьев.
Скoрoсть ветра измеряется на высoте 10 м (на урoвне рoста челoвека скoрoсть ветра ниже в 1.5-2 раза). Если метеoстанция нахoдится в гoрoде или в лесу, тo скoрoсть ветра занижена на 2-4 м/с пo сравнению с oткрытым местoм. Скoрoсть ветра над акватoриями крупных рек и oзёр, а также на вершинах хoлмoв на 2-5 м/с выше, чем в oбычных услoвиях.
Атмoсфернoе давление в разных тoчках местнoсти мoжет значительнo oтличаться oт давления на метеoстанции, в зависимoсти oт услoвий рельефа (при пoдъёме на 10 м давление пoнижается примернo на 1 мм рт.ст.).